DW7628 Weather Reports


Display with metric or nautical units.
time (UTC)temp
F
wind
direction
speed
MPH
gust
MPH
rain 1hr
in
rain 24hr
in
rain mn
in
humidity
%
barometer
mb
20260510090804 73 179 0.0 0.0 0.00 0.03 0.03 56 1012.6
20260510090305 73 155 0.0 0.0 0.00 0.03 0.03 57 1012.5
20260510085805 72 127 0.0 0.0 0.00 0.03 0.03 58 1012.4
20260510085306 72 35 0.0 0.0 0.00 0.03 0.03 58 1012.4
20260510084804 72 13 0.0 0.0 0.00 0.03 0.03 58 1012.4
20260510084304 72 127 0.0 0.0 0.00 0.03 0.03 58 1012.4
20260510083805 71 152 0.0 0.0 0.00 0.03 0.03 60 1012.3
20260510083304 71 42 0.0 0.0 0.00 0.03 0.03 60 1012.3
20260510082804 71 16 0.0 0.0 0.00 0.03 0.03 60 1012.2
20260510082307 71 119 0.0 0.0 0.00 0.03 0.03 61 1012.2
20260510081804 71 57 0.0 0.0 0.00 0.03 0.03 61 1012.1
20260510081304 70 81 0.0 0.0 0.00 0.03 0.03 61 1012.1
20260510080805 70 74 0.0 0.0 0.00 0.03 0.03 62 1011.9
20260510080305 70 22 0.0 0.0 0.00 0.03 0.03 61 1011.8
20260510075804 70 41 0.0 0.0 0.00 0.03 0.03 62 1011.8
20260510075306 70 39 0.0 0.0 0.00 0.03 0.03 62 1011.7
20260510074805 69 117 0.0 0.0 0.00 0.03 0.03 63 1011.7
20260510074305 69 67 0.0 0.0 0.00 0.03 0.03 63 1011.6
20260510073804 69 96 0.0 0.0 0.00 0.03 0.03 64 1011.7
20260510073304 69 329 0.0 0.0 0.00 0.03 0.03 65 1011.7
20260510072805 68 146 0.0 0.0 0.00 0.03 0.03 65 1011.8
20260510072306 68 92 0.0 0.0 0.00 0.03 0.03 65 1011.8
20260510070304 67 82 0.0 0.0 0.00 0.03 0.03 66 1011.7
20260510065306 66 89 0.0 0.0 0.00 0.03 0.03 67 1011.6
20260510064805 66 143 0.0 0.0 0.00 0.03 0.03 67 1011.6
20260510064304 66 165 0.0 0.0 0.00 0.03 0.03 68 1011.5
20260510063804 65 242 0.0 0.0 0.00 0.03 0.03 68 1011.4
20260510063304 65 36 0.0 0.0 0.00 0.03 0.03 69 1011.4
20260510062804 64 208 0.0 0.0 0.00 0.03 0.03 70 1011.4
20260510062307 64 127 0.0 0.0 0.00 0.03 0.03 71 1011.4
20260510061304 63 345 0.0 0.0 0.00 0.03 0.03 74 1011.4
20260510060805 62 35 0.0 0.0 0.00 0.03 0.03 75 1011.4
20260510060305 62 80 0.0 0.0 0.00 0.03 0.03 76 1011.4
20260510055804 62 85 0.0 0.0 0.00 0.03 0.03 77 1011.5
20260510055306 62 3 0.0 0.0 0.00 0.03 0.03 77 1011.5
20260510054805 61 141 0.0 0.0 0.00 0.03 0.03 78 1011.5
20260510053805 61 100 0.0 0.0 0.00 0.03 0.03 78 1011.5
20260510053305 61 150 0.0 0.0 0.00 0.03 0.03 78 1011.4
20260510052804 61 83 0.0 0.0 0.00 0.03 0.03 77 1011.3
20260510051804 61 186 0.0 0.0 0.00 0.03 0.03 76 1011.2
20260510051304 62 140 0.0 0.0 0.00 0.03 0.03 76 1011.2
20260510050804 61 21 0.0 0.0 0.00 0.03 0.03 76 1011.2
20260510050305 61 153 0.0 0.0 0.00 0.03 0.03 76 1011.2
20260510045804 61 151 0.0 0.0 0.00 0.03 0.03 77 1011.0
20260510045306 61 91 0.0 0.0 0.00 0.03 0.03 77 1011.0
20260510044806 61 146 0.0 0.0 0.00 0.03 0.03 77 1010.9
20260510044304 61 111 0.0 0.0 0.00 0.03 0.03 77 1010.8
20260510043304 61 157 0.0 0.0 0.00 0.03 0.03 78 1010.7
20260510042804 61 213 0.0 0.0 0.00 0.03 0.03 78 1010.8
20260510042306 61 126 0.0 0.0 0.00 0.03 0.03 78 1010.8
20260510041804 61 75 0.0 0.0 0.00 0.03 0.03 78 1010.8
20260510041304 61 68 0.0 0.0 0.00 0.03 0.03 78 1010.9
20260510040804 61 80 0.0 0.0 0.00 0.03 0.03 78 1011.1
20260510040304 61 84 0.0 0.0 0.00 0.03 0.03 78 1011.1
20260510035804 61 201 0.0 0.0 0.00 0.03 0.03 78 1011.0
20260510035306 61 297 0.0 0.0 0.00 0.03 0.03 79 1010.9
20260510034804 61 82 0.0 0.0 0.00 0.03 0.03 78 1010.8
20260510033304 61 55 0.0 0.0 0.00 0.03 0.03 79 1011.1
20260510032804 60 7 0.0 0.0 0.00 0.03 0.03 80 1011.0
20260510032306 60 57 0.0 0.0 0.00 0.03 0.03 80 1011.0
20260510031304 60 342 0.0 0.0 0.00 0.03 0.03 81 1011.0
20260510030804 60 308 0.0 0.0 0.00 0.03 0.03 81 1011.0
20260510030304 60 159 0.0 0.0 0.00 0.03 0.03 81 1011.1
20260510025804 60 186 0.0 0.0 0.00 0.03 0.03 82 1011.0
20260510025306 60 115 0.0 0.0 0.00 0.03 0.03 82 1011.2
20260510024804 60 8 0.0 0.0 0.00 0.03 0.03 83 1011.4
20260510024305 60 305 0.0 0.0 0.00 0.03 0.03 83 1011.3
20260510023304 60 132 0.0 0.0 0.00 0.03 0.03 84 1011.2
20260510021804 60 98 0.0 0.0 0.01 0.03 0.03 84 1012.2
20260510021304 60 90 0.0 0.0 0.01 0.03 0.03 84 1012.2
20260510020803 60 339 0.0 0.0 0.01 0.03 0.03 84 1012.5
20260510020304 60 354 0.0 0.0 0.01 0.03 0.03 85 1012.5
20260510015804 60 47 0.0 0.0 0.01 0.03 0.03 85 1012.4
20260510015306 60 168 0.0 0.0 0.01 0.03 0.03 85 1012.4
20260510014804 60 47 0.0 0.0 0.01 0.03 0.03 85 1012.2
20260510014304 60 118 0.0 0.0 0.01 0.03 0.03 85 1012.3
20260510013803 60 35 0.0 0.0 0.02 0.03 0.03 84 1012.3
20260510013304 60 88 0.0 0.0 0.02 0.03 0.03 83 1012.5
20260510012803 60 32 0.0 0.0 0.02 0.03 0.03 83 1012.4
20260510012307 60 149 0.0 0.0 0.01 0.02 0.02 81 1013.0
20260510011804 61 272 0.0 0.0 0.01 0.02 0.02 81 1013.6
20260510011305 61 154 0.0 0.0 0.02 0.02 0.02 80 1013.7
20260510010804 60 19 0.0 0.0 0.02 0.02 0.02 79 1013.6
20260510005804 60 63 0.0 0.0 0.02 0.02 0.02 80 1013.3
20260510005306 60 101 0.0 0.0 0.02 0.02 0.02 80 1013.5
20260510004304 60 125 0.0 0.0 0.02 0.02 0.02 81 1013.6
20260510003304 58 39 0.0 0.0 0.01 0.01 0.01 85 1014.7
20260510002307 59 57 0.0 0.0 0.01 0.01 0.01 83 1015.1
20260510001306 59 117 0.0 0.0 0.00 0.00 0.00 81 1014.7
20260510000806 59 26 0.0 0.0 0.00 0.00 0.00 81 1014.5
20260510000306 60 32 0.0 0.0 0.00 0.00 0.00 80 1013.3
20260509235806 59 27 0.0 0.0 0.00 0.00 0.00 80 1011.6
20260509235307 60 356 0.0 0.0 0.00 0.00 0.00 79 1011.5
20260509234806 60 129 0.0 0.0 0.00 0.00 0.00 79 1011.9
20260509234306 60 119 0.0 0.0 0.00 0.00 0.00 79 1011.9
20260509233806 60 191 0.0 0.0 0.00 0.00 0.00 80 1011.9
20260509232806 60 39 0.0 0.0 0.00 0.00 0.00 80 1012.0
20260509232306 60 36 0.0 0.0 0.00 0.00 0.00 81 1012.2
20260509231806 60 89 0.0 0.0 0.00 0.00 0.00 80 1012.3
20260509231306 60 105 0.0 0.0 0.00 0.00 0.00 80 1012.3
20260509230806 60 249 0.0 0.0 0.00 0.00 0.00 79 1012.9
20260509230306 60 209 0.0 0.0 0.00 0.00 0.00 78 1012.9
20260509225806 60 98 0.0 0.0 0.00 0.00 0.00 78 1012.6
20260509225306 60 93 0.0 0.0 0.00 0.00 0.00 77 1012.1
20260509224806 61 29 0.0 0.0 0.00 0.00 0.00 77 1011.8
20260509224306 61 157 0.0 0.0 0.00 0.00 0.00 78 1011.7
20260509223806 61 112 0.0 0.0 0.00 0.00 0.00 78 1011.8
20260509223306 60 134 0.0 0.0 0.00 0.00 0.00 78 1011.8
20260509222806 60 18 0.0 0.0 0.00 0.00 0.00 79 1011.7
20260509221806 60 16 0.0 0.0 0.00 0.00 0.00 81 1012.0
20260509221306 60 87 0.0 0.0 0.00 0.00 0.00 81 1012.0
20260509220827 60 138 0.0 0.0 0.00 0.00 0.00 80 1012.0
20260509220306 60 33 0.0 0.0 0.00 0.00 0.00 80 1011.9
20260509215806 60 86 0.0 0.0 0.00 0.00 0.00 81 1011.9
20260509215306 60 117 0.0 0.0 0.00 0.00 0.00 81 1012.1
20260509214306 61 61 0.0 0.0 0.00 0.00 0.00 79 1012.1
20260509213805 61 136 0.0 0.0 0.00 0.00 0.00 80 1012.0
20260509213306 61 94 0.0 0.0 0.00 0.00 0.00 80 1012.1
20260509212805 61 350 0.0 0.0 0.00 0.00 0.00 80 1012.2
20260509212306 61 104 0.0 0.0 0.00 0.00 0.00 80 1012.1
20260509211807 61 134 0.0 0.0 0.00 0.00 0.00 80 1012.1
20260509211306 61 111 0.0 0.0 0.00 0.00 0.00 80 1012.2
20260509210806 62 350 0.0 0.0 0.00 0.00 0.00 79 1012.3
20260509210306 62 12 0.0 0.0 0.00 0.00 0.00 79 1012.3
20260509205806 62 348 0.0 0.0 0.00 0.00 0.00 79 1012.3
20260509204306 62 5 0.0 0.0 0.00 0.00 0.00 79 1012.4
20260509203806 62 111 0.0 0.0 0.00 0.00 0.00 80 1012.3
20260509203306 63 0 0.0 0.0 0.00 0.00 0.00 79 1012.2
20260509202806 63 95 0.0 0.0 0.00 0.00 0.00 79 1012.1
20260509202307 63 52 0.0 0.0 0.00 0.00 0.00 79 1012.2
20260509201806 63 347 0.0 0.0 0.00 0.00 0.00 79 1012.2
20260509201305 63 183 0.0 0.0 0.00 0.00 0.00 79 1012.2
20260509200306 63 134 0.0 0.0 0.00 0.00 0.00 79 1012.3
20260509195806 63 1 0.0 0.0 0.00 0.00 0.00 78 1012.4
20260509195306 63 40 0.0 0.0 0.00 0.00 0.00 78 1012.5
20260509194805 64 114 0.0 0.0 0.00 0.00 0.00 78 1012.4
20260509194306 64 103 0.0 0.0 0.00 0.00 0.00 78 1012.3
20260509193805 64 7 0.0 0.0 0.00 0.00 0.00 77 1012.4
20260509193306 64 2 0.0 0.0 0.00 0.00 0.00 77 1012.6
20260509192306 65 90 0.0 0.0 0.00 0.00 0.00 77 1012.5
20260509191805 65 8 0.0 0.0 0.00 0.00 0.00 76 1012.6
20260509191306 65 348 0.0 0.0 0.00 0.00 0.00 76 1012.6
20260509190806 66 135 0.0 0.0 0.00 0.00 0.00 75 1012.5
20260509190305 66 199 0.0 0.0 0.00 0.00 0.00 75 1012.7
20260509185806 66 346 0.0 0.0 0.00 0.00 0.00 75 1012.7
20260509185306 66 160 0.0 0.0 0.00 0.00 0.00 75 1012.5
20260509184806 67 157 0.0 0.0 0.00 0.00 0.00 75 1012.5
20260509184305 67 352 0.0 0.0 0.00 0.00 0.00 76 1012.7
20260509183306 67 162 0.0 0.0 0.00 0.00 0.00 76 1012.8
20260509182307 67 141 0.0 0.0 0.00 0.00 0.00 77 1012.5
20260509181805 67 168 0.0 0.0 0.00 0.00 0.00 77 1012.3
20260509181306 67 122 0.0 0.0 0.00 0.00 0.00 77 1012.5
20260509180805 67 92 0.0 0.0 0.00 0.00 0.00 78 1012.5
20260509180305 67 85 0.0 0.0 0.00 0.00 0.00 78 1012.2
20260509175805 67 330 0.0 0.0 0.00 0.00 0.00 78 1011.8
20260509175307 68 11 0.0 0.0 0.00 0.00 0.00 79 1011.4
20260509174805 68 33 0.0 0.0 0.00 0.00 0.00 80 1011.9
20260509174306 68 90 0.0 0.0 0.00 0.00 0.00 78 1012.8
20260509173805 68 76 0.0 0.0 0.00 0.00 0.00 76 1013.1
20260509173305 69 258 0.0 0.0 0.00 0.00 0.00 73 1013.4
20260509172806 69 152 0.0 0.0 0.00 0.00 0.00 71 1013.7
20260509172306 70 236 0.0 0.0 0.00 0.00 0.00 71 1013.9
20260509171805 70 256 0.0 0.0 0.00 0.00 0.00 71 1013.6
20260509171306 70 250 0.0 0.0 0.00 0.00 0.00 71 1013.1
20260509170805 70 135 0.0 0.0 0.00 0.00 0.00 70 1012.6
20260509170305 70 242 0.0 0.0 0.00 0.00 0.00 70 1012.6
20260509165806 70 77 0.0 0.0 0.00 0.00 0.00 70 1012.4
20260509165307 70 92 0.0 0.0 0.00 0.00 0.00 70 1012.4
20260509164305 70 90 0.0 0.0 0.00 0.00 0.00 67 1012.4
20260509163305 70 224 0.0 0.0 0.00 0.00 0.00 67 1013.1
20260509162805 71 124 0.0 0.0 0.00 0.00 0.00 66 1013.0
20260509162307 71 156 0.0 0.0 0.00 0.00 0.00 66 1012.9
20260509160806 72 190 0.0 0.0 0.00 0.00 0.00 65 1012.9
20260509160305 72 208 0.0 0.0 0.00 0.00 0.00 65 1012.9
20260509155805 72 167 0.0 0.0 0.00 0.00 0.00 64 1012.8
20260509155306 73 94 0.0 0.0 0.00 0.00 0.00 64 1012.7
20260509154805 73 154 0.0 0.0 0.00 0.00 0.00 64 1012.6
20260509154305 73 193 0.0 0.0 0.00 0.00 0.00 64 1012.5
20260509153306 74 253 0.0 0.0 0.00 0.00 0.00 62 1012.3
20260509152805 75 255 0.0 0.0 0.00 0.00 0.00 61 1012.3
20260509152307 74 262 0.0 0.0 0.00 0.00 0.00 61 1012.4
20260509151305 75 282 0.0 0.0 0.00 0.00 0.00 59 1012.2
20260509150805 76 268 0.0 0.0 0.00 0.00 0.00 58 1012.2
20260509150305 76 198 0.0 0.0 0.00 0.00 0.00 57 1012.2
20260509145306 77 144 0.0 0.0 0.00 0.00 0.00 56 1012.4
20260509144305 78 157 0.0 0.0 0.00 0.00 0.00 55 1012.5
20260509143805 78 220 0.0 0.0 0.00 0.00 0.00 53 1012.6
20260509143305 78 249 0.0 0.0 0.00 0.00 0.00 53 1012.7
20260509142805 78 268 0.0 0.0 0.00 0.00 0.00 53 1012.6
20260509142307 78 212 0.0 0.0 0.00 0.00 0.00 53 1012.6
20260509141805 78 256 0.0 0.0 0.00 0.00 0.00 53 1012.8
20260509141305 78 159 0.0 0.0 0.00 0.00 0.00 53 1012.7
20260509140805 78 262 0.0 0.0 0.00 0.00 0.00 53 1012.7
20260509140305 78 245 0.0 0.0 0.00 0.00 0.00 53 1012.7
20260509135805 78 261 0.0 0.0 0.00 0.00 0.00 53 1012.7
20260509135306 78 189 0.0 0.0 0.00 0.00 0.00 53 1012.7
20260509134805 79 339 0.0 0.0 0.00 0.00 0.00 52 1012.8
20260509134305 79 219 0.0 0.0 0.00 0.00 0.00 52 1012.8
20260509133805 79 77 0.0 0.0 0.00 0.00 0.00 52 1012.7
20260509132805 79 288 0.0 0.0 0.00 0.00 0.00 50 1012.8
20260509131805 80 262 0.0 0.0 0.00 0.00 0.00 49 1012.9
20260509130305 79 253 0.0 0.0 0.00 0.00 0.00 49 1013.0
20260509125805 78 234 0.0 0.0 0.00 0.00 0.00 50 1013.0
20260509125307 78 234 0.0 0.0 0.00 0.00 0.00 50 1013.1
20260509124806 78 260 0.0 0.0 0.00 0.00 0.00 51 1013.2
20260509124305 77 125 0.0 0.0 0.00 0.00 0.00 52 1013.3
20260509123806 77 157 0.0 0.0 0.00 0.00 0.00 52 1013.2
20260509123305 76 133 0.0 0.0 0.00 0.00 0.00 54 1013.3
20260509122805 76 76 0.0 0.0 0.00 0.00 0.00 53 1013.3
20260509122306 76 198 0.0 0.0 0.00 0.00 0.00 54 1013.3
20260509121805 76 132 0.0 0.0 0.00 0.00 0.00 54 1013.4
20260509121305 76 287 0.0 0.0 0.00 0.00 0.00 55 1013.4
20260509120805 76 241 0.0 0.0 0.00 0.00 0.00 54 1013.5
20260509120305 76 218 0.0 0.0 0.00 0.00 0.00 54 1013.5
20260509115805 76 256 0.0 0.0 0.00 0.00 0.00 55 1013.5
20260509115307 76 81 0.0 0.0 0.00 0.00 0.00 54 1013.5
20260509114805 76 262 0.0 0.0 0.00 0.00 0.00 53 1013.5
20260509114304 77 249 0.0 0.0 0.00 0.00 0.00 52 1013.5
20260509113805 76 86 0.0 0.0 0.00 0.00 0.00 50 1013.5
20260509113305 77 87 0.0 0.0 0.00 0.00 0.00 47 1013.4
20260509112307 77 84 0.0 0.0 0.00 0.00 0.00 45 1013.6
20260509111805 77 235 0.0 0.0 0.00 0.00 0.00 44 1013.7
20260509111305 77 265 0.0 0.0 0.00 0.00 0.00 44 1013.7
20260509110804 77 145 0.0 0.0 0.00 0.00 0.00 44 1013.8
20260509110305 77 100 0.0 0.0 0.00 0.00 0.00 44 1013.9
20260509105805 77 274 0.0 0.0 0.00 0.00 0.00 44 1013.8
20260509105306 77 100 0.0 0.0 0.00 0.00 0.00 44 1013.8
20260509104805 77 150 0.0 0.0 0.00 0.00 0.00 42 1013.7
20260509103305 78 146 0.0 0.0 0.00 0.00 0.00 39 1013.8
20260509102806 77 228 0.0 0.0 0.00 0.00 0.00 40 1013.8
20260509102306 76 314 0.0 0.0 0.00 0.00 0.00 41 1013.8
20260509101805 76 203 0.0 0.0 0.00 0.00 0.00 41 1013.8
20260509101305 76 119 0.0 0.0 0.00 0.00 0.00 41 1013.7
20260509100304 75 291 0.0 0.0 0.00 0.00 0.00 43 1013.8
20260509095805 75 56 0.0 0.0 0.00 0.00 0.00 46 1013.7
20260509095306 74 236 0.0 0.0 0.00 0.00 0.00 47 1013.7
20260509094805 74 350 0.0 0.0 0.00 0.00 0.00 47 1013.6
20260509094306 74 340 0.0 0.0 0.00 0.00 0.00 49 1013.5
20260509093304 74 212 0.0 0.0 0.00 0.00 0.00 50 1013.6
20260509092805 73 91 0.0 0.0 0.00 0.00 0.00 51 1013.6
20260509092306 73 113 0.0 0.0 0.00 0.00 0.00 51 1013.6
20260509091804 73 81 0.0 0.0 0.00 0.00 0.00 52 1013.5
20260509091304 72 84 0.0 0.0 0.00 0.00 0.00 54 1013.5